,,PA_Meas_PMT16A,,PR_Meas_QMR101_102,,RH_Meas_QMH101,,SR_Meas_QMS101,,TA_Meas_QMH101,,GenWind,,GenWind,
time,status,PA,status,PR,status,RH,status,SR,status,TA,status,DirAvg,status,SpdAvg,
2015-01-28, 07:25:04,VALID,917.856,VALID,0,VALID,89.7733,VALID,107.978,VALID,19.7448,VALID,117,VALID,0,
2015-01-28, 07:26:04,VALID,917.804,VALID,0,VALID,89.4837,VALID,110.127,VALID,19.7643,VALID,117,VALID,0,
2015-01-28, 07:27:04,VALID,917.83,VALID,0,VALID,89.8267,VALID,113.243,VALID,19.8423,VALID,116,VALID,0,
2015-01-28, 07:28:04,VALID,917.842,VALID,0,VALID,89.72,VALID,116.681,VALID,19.9773,VALID,116,VALID,0,
2015-01-28, 07:29:04,VALID,917.837,VALID,0,VALID,88.7213,VALID,119.689,VALID,20.2309,VALID,117,VALID,0,
2015-01-28, 07:30:04,VALID,917.849,VALID,0,VALID,87.1128,VALID,123.45,VALID,20.3869,VALID,116,VALID,0,
2015-01-28, 07:31:04,VALID,917.858,VALID,0,VALID,86.4343,VALID,125.706,VALID,20.4845,VALID,117,VALID,0,
2015-01-28, 07:32:04,VALID,917.877,VALID,0,VALID,86.2361,VALID,128.392,VALID,20.4845,VALID,117,VALID,0,
2015-01-28, 07:33:04,VALID,917.867,VALID,0,VALID,86.2589,VALID,131.293,VALID,20.4244,VALID,117,VALID,0,
2015-01-28, 07:34:04,VALID,917.877,VALID,0,VALID,86.663,VALID,133.764,VALID,20.3854,VALID,117,VALID,0,
2015-01-28, 07:35:04,VALID,917.885,VALID,0,VALID,86.724,VALID,136.45,VALID,20.3869,VALID,116,VALID,0,
2015-01-28, 07:36:04,VALID,917.898,VALID,0,VALID,86.7926,VALID,139.996,VALID,20.3074,VALID,102,VALID,0,
2015-01-28, 07:37:04,VALID,917.941,VALID,0,VALID,87.372,VALID,142.467,VALID,20.2309,VALID,102,VALID,0,
2015-01-28, 07:38:04,VALID,917.962,VALID,0,VALID,88.0962,VALID,145.046,VALID,20.1708,VALID,102,VALID,0,
2015-01-28, 07:39:04,VALID,917.942,VALID,0,VALID,88.3249,VALID,149.236,VALID,20.1529,VALID,102,VALID,0,
2015-01-28, 07:40:04,VALID,917.963,VALID,0,VALID,88.7289,VALID,152.781,VALID,20.1318,VALID,102,VALID,0,
2015-01-28, 07:41:04,VALID,917.979,VALID,0,VALID,88.5155,VALID,155.79,VALID,20.1318,VALID,102,VALID,0,
2015-01-28, 07:42:04,VALID,917.972,VALID,0,VALID,88.6375,VALID,159.228,VALID,20.1318,VALID,102,VALID,0,
2015-01-28, 07:43:04,VALID,917.991,VALID,0,VALID,88.6984,VALID,161.806,VALID,20.1708,VALID,102,VALID,0,
2015-01-28, 07:44:04,VALID,918.032,VALID,0,VALID,87.8599,VALID,165.244,VALID,20.2098,VALID,102,VALID,0,
2015-01-28, 07:45:04,VALID,918.032,VALID,0,VALID,87.6388,VALID,168.145,VALID,20.2489,VALID,102,VALID,0,
2015-01-28, 07:46:04,VALID,918.057,VALID,0,VALID,87.2576,VALID,171.154,VALID,20.3074,VALID,102,VALID,0,
2015-01-28, 07:47:04,VALID,918.083,VALID,0,VALID,87.5473,VALID,174.162,VALID,20.4228,VALID,102,VALID,0,
2015-01-28, 07:48:04,VALID,918.063,VALID,0,VALID,86.9146,VALID,177.385,VALID,20.5804,VALID,102,VALID,0,
2015-01-28, 07:49:04,VALID,918.087,VALID,0,VALID,85.2222,VALID,180.716,VALID,20.639,VALID,102,VALID,0,
2015-01-28, 07:50:04,VALID,918.102,VALID,0,VALID,84.5894,VALID,184.154,VALID,20.7365,VALID,102,VALID,0,
2015-01-28, 07:51:04,VALID,918.098,VALID,0,VALID,84.1168,VALID,187.055,VALID,20.795,VALID,102,VALID,0,
2015-01-28, 07:52:04,VALID,918.117,VALID,0,VALID,82.9199,VALID,190.171,VALID,20.8925,VALID,102,VALID,0,
2015-01-28, 07:53:04,VALID,918.108,VALID,0,VALID,83.8881,VALID,193.609,VALID,21.0697,VALID,102,VALID,0,
2015-01-28, 07:54:04,VALID,918.155,VALID,0,VALID,83.3392,VALID,196.832,VALID,21.1657,VALID,102,VALID,0,
2015-01-28, 07:55:04,VALID,918.175,VALID,0,VALID,83.0571,VALID,200.055,VALID,21.3412,VALID,102,VALID,0,
2015-01-28, 07:56:04,VALID,918.195,VALID,0,VALID,81.4638,VALID,202.956,VALID,21.4778,VALID,102,VALID,0,
2015-01-28, 07:57:04,VALID,918.19,VALID,0,VALID,80.7625,VALID,205.642,VALID,21.6924,VALID,102,VALID,0,
2015-01-28, 07:58:04,VALID,918.195,VALID,0,VALID,79.3293,VALID,208.651,VALID,21.9656,VALID,102,VALID,0,
2015-01-28, 07:59:04,VALID,918.224,VALID,0,VALID,79.3293,VALID,211.981,VALID,22.2583,VALID,102,VALID,0,
2015-01-28, 08:00:04,VALID,918.217,VALID,0,VALID,77.6216,VALID,215.634,VALID,22.5316,VALID,102,VALID,0,
2015-01-28, 08:01:04,VALID,918.255,VALID,0,VALID,76.1808,VALID,219.395,VALID,22.8048,VALID,102,VALID,0,
2015-01-28, 08:02:04,VALID,918.295,VALID,0,VALID,72.735,VALID,223.692,VALID,23,VALID,102,VALID,0,
2015-01-28, 08:03:04,VALID,918.295,VALID,0,VALID,73.2077,VALID,227.453,VALID,22.7836,VALID,102,VALID,0,
2015-01-28, 08:04:04,VALID,918.343,VALID,0,VALID,74.3969,VALID,230.461,VALID,22.6274,VALID,102,VALID,0,
2015-01-28, 08:05:04,VALID,918.348,VALID,0,VALID,75.1669,VALID,233.255,VALID,22.6079,VALID,102,VALID,0,
2015-01-28, 08:06:04,VALID,918.393,VALID,0,VALID,73.9929,VALID,236.263,VALID,22.5316,VALID,102,VALID,0,
2015-01-28, 08:07:04,VALID,918.383,VALID,0,VALID,75.0602,VALID,239.916,VALID,22.6292,VALID,102,VALID,0,
2015-01-28, 08:08:04,VALID,918.424,VALID,0,VALID,74.6256,VALID,244.429,VALID,22.7641,VALID,102,VALID,0,
2015-01-28, 08:09:04,VALID,918.415,VALID,0,VALID,75.6167,VALID,247.974,VALID,22.9983,VALID,102,VALID,0,
2015-01-28, 08:10:04,VALID,918.443,VALID,0,VALID,74.3588,VALID,252.057,VALID,23.2112,VALID,105,VALID,0,
2015-01-28, 08:11:04,VALID,918.445,VALID,0,VALID,73.0552,VALID,255.173,VALID,23.1544,VALID,123,VALID,0,
2015-01-28, 08:12:04,VALID,918.423,VALID,0,VALID,74.1225,VALID,258.074,VALID,22.9983,VALID,123,VALID,0,
2015-01-28, 08:13:04,VALID,918.432,VALID,0,VALID,74.435,VALID,261.619,VALID,22.9983,VALID,123,VALID,0,
2015-01-28, 08:14:04,VALID,918.432,VALID,0,VALID,74.4808,VALID,265.487,VALID,23.0568,VALID,123,VALID,0,
2015-01-28, 08:15:04,VALID,918.463,VALID,0,VALID,74.9153,VALID,268.71,VALID,23.1544,VALID,123,VALID,0,
2015-01-28, 08:16:04,VALID,918.482,VALID,0,VALID,73.8861,VALID,272.041,VALID,23.1935,VALID,131,VALID,0,
2015-01-28, 08:17:04,VALID,918.458,VALID,0,VALID,74.3893,VALID,274.082,VALID,23.1544,VALID,131,VALID,0,
2015-01-28, 08:18:04,VALID,918.474,VALID,0,VALID,74.1835,VALID,277.306,VALID,23.2325,VALID,137,VALID,0,
2015-01-28, 08:19:04,VALID,918.503,VALID,0,VALID,74.4732,VALID,279.992,VALID,23.0568,VALID,183,VALID,0,
2015-01-28, 08:20:04,VALID,918.546,VALID,0,VALID,75.2431,VALID,283.537,VALID,22.8794,VALID,183,VALID,0,
2015-01-28, 08:21:04,VALID,918.538,VALID,0,VALID,75.4261,VALID,286.76,VALID,22.7818,VALID,222,VALID,0,
2015-01-28, 08:22:04,VALID,918.539,VALID,0,VALID,74.1911,VALID,290.951,VALID,22.8014,VALID,265,VALID,0,
2015-01-28, 08:23:04,VALID,918.571,VALID,0,VALID,74.7019,VALID,294.496,VALID,22.8014,VALID,265,VALID,0,
2015-01-28, 08:24:04,VALID,918.569,VALID,0,VALID,74.8848,VALID,297.719,VALID,22.8209,VALID,265,VALID,0,
2015-01-28, 08:25:04,VALID,918.551,VALID,0,VALID,75.144,VALID,302.125,VALID,22.938,VALID,265,VALID,0,
2015-01-28, 08:26:04,VALID,918.553,VALID,0,VALID,73.8938,VALID,306.422,VALID,23.1331,VALID,265,VALID,0,
2015-01-28, 08:27:04,VALID,918.541,VALID,0,VALID,72.8799,VALID,309.753,VALID,23.2893,VALID,265,VALID,0,
2015-01-28, 08:28:04,VALID,918.551,VALID,0,VALID,72.2547,VALID,313.084,VALID,23.3851,VALID,265,VALID,0,
2015-01-28, 08:29:04,VALID,918.535,VALID,0,VALID,71.965,VALID,316.629,VALID,23.3674,VALID,203,VALID,0,
2015-01-28, 08:30:04,VALID,918.51,VALID,0,VALID,71.7973,VALID,319.637,VALID,23.4046,VALID,196,VALID,0,
2015-01-28, 08:31:04,VALID,918.561,VALID,0,VALID,71.561,VALID,323.183,VALID,23.5022,VALID,196,VALID,0,
2015-01-28, 08:32:04,VALID,918.563,VALID,0,VALID,71.5076,VALID,326.084,VALID,23.5608,VALID,196,VALID,0,
2015-01-28, 08:33:04,VALID,918.582,VALID,0,VALID,71.0502,VALID,328.985,VALID,23.6193,VALID,196,VALID,0,
2015-01-28, 08:34:04,VALID,918.583,VALID,0,VALID,70.9969,VALID,331.026,VALID,23.6193,VALID,196,VALID,0,
2015-01-28, 08:35:04,VALID,918.614,VALID,0,VALID,71.1493,VALID,334.679,VALID,23.5998,VALID,196,VALID,0,
2015-01-28, 08:36:04,VALID,918.667,VALID,0,VALID,71.4924,VALID,338.117,VALID,23.6193,VALID,196,VALID,0,
2015-01-28, 08:37:04,VALID,918.667,VALID,0,VALID,71.0274,VALID,341.77,VALID,23.834,VALID,196,VALID,0,
2015-01-28, 08:38:04,VALID,918.671,VALID,0,VALID,69.7771,VALID,345.208,VALID,24.1055,VALID,196,VALID,0,
2015-01-28, 08:39:04,VALID,918.682,VALID,0,VALID,69.6094,VALID,348.002,VALID,24.2031,VALID,208,VALID,0,
2015-01-28, 08:40:04,VALID,918.674,VALID,0,VALID,70.509,VALID,352.944,VALID,24.0683,VALID,208,VALID,0,
2015-01-28, 08:41:04,VALID,918.729,VALID,0,VALID,70.9664,VALID,356.705,VALID,24.1854,VALID,208,VALID,0,
2015-01-28, 08:42:04,VALID,918.741,VALID,0,VALID,70.3108,VALID,360.895,VALID,24.2635,VALID,195,VALID,0,
2015-01-28, 08:43:04,VALID,918.737,VALID,0,VALID,69.5256,VALID,365.085,VALID,24.0097,VALID,167,VALID,0,
2015-01-28, 08:44:04,VALID,918.779,VALID,0,VALID,70.0821,VALID,367.879,VALID,23.6974,VALID,167,VALID,0,
2015-01-28, 08:45:04,VALID,918.746,VALID,0,VALID,72.1709,VALID,371.317,VALID,23.4632,VALID,167,VALID,0,
2015-01-28, 08:46:04,VALID,918.772,VALID,0,VALID,72.9408,VALID,375.507,VALID,23.4827,VALID,173,VALID,0,
2015-01-28, 08:47:04,VALID,918.755,VALID,0,VALID,73.6422,VALID,380.234,VALID,23.4809,VALID,173,VALID,0,
2015-01-28, 08:48:04,VALID,918.759,VALID,0,VALID,73.0171,VALID,384.102,VALID,23.6193,VALID,170,VALID,0,
2015-01-28, 08:49:04,VALID,918.763,VALID,0,VALID,71.9117,VALID,387.325,VALID,23.7542,VALID,171,VALID,0,
2015-01-28, 08:50:04,VALID,918.776,VALID,0,VALID,70.7072,VALID,390.763,VALID,23.9316,VALID,179,VALID,0,
2015-01-28, 08:51:04,VALID,918.75,VALID,0,VALID,70.1812,VALID,394.954,VALID,24.1464,VALID,179,VALID,0,
2015-01-28, 08:52:04,VALID,918.771,VALID,0,VALID,69.4874,VALID,399.466,VALID,24.2812,VALID,179,VALID,0,
2015-01-28, 08:53:04,VALID,918.745,VALID,0,VALID,68.3134,VALID,403.656,VALID,24.4002,VALID,180,VALID,0,
2015-01-28, 08:54:04,VALID,918.739,VALID,0,VALID,67.8713,VALID,407.417,VALID,24.5173,VALID,180,VALID,0,
2015-01-28, 08:55:04,VALID,918.752,VALID,0,VALID,67.4062,VALID,410.962,VALID,24.5564,VALID,180,VALID,0,
2015-01-28, 08:56:04,VALID,918.774,VALID,0,VALID,67.6578,VALID,412.574,VALID,24.6131,VALID,180,VALID,0,
2015-01-28, 08:57:04,VALID,918.767,VALID,0,VALID,67.4139,VALID,415.367,VALID,24.8083,VALID,180,VALID,0,
2015-01-28, 08:58:04,VALID,918.784,VALID,0,VALID,67.8713,VALID,419.235,VALID,24.8492,VALID,180,VALID,0,
2015-01-28, 08:59:04,VALID,918.794,VALID,0,VALID,67.6959,VALID,423.855,VALID,24.9059,VALID,256,VALID,0,
2015-01-28, 09:00:04,VALID,918.811,VALID,0,VALID,68.3211,VALID,427.079,VALID,24.8083,VALID,270,VALID,0,
2015-01-28, 09:01:04,VALID,918.808,VALID,0,VALID,70.0744,VALID,433.31,VALID,24.6521,VALID,270,VALID,0,
2015-01-28, 09:02:04,VALID,918.776,VALID,0,VALID,69.2892,VALID,438.36,VALID,24.574,VALID,270,VALID,0,
2015-01-28, 09:03:04,VALID,918.787,VALID,0,VALID,70.2193,VALID,448.244,VALID,24.4959,VALID,270,VALID,0,
2015-01-28, 09:04:04,VALID,918.799,VALID,0,VALID,70.6538,VALID,456.84,VALID,24.2635,VALID,268,VALID,0,
2015-01-28, 09:05:04,VALID,918.826,VALID,0,VALID,70.7453,VALID,466.509,VALID,24.1055,VALID,254,VALID,0,
2015-01-28, 09:06:04,VALID,918.824,VALID,0,VALID,71.4009,VALID,475.964,VALID,24.2031,VALID,254,VALID,0,
2015-01-28, 09:07:04,VALID,918.865,VALID,0,VALID,71.096,VALID,481.874,VALID,24.4587,VALID,255,VALID,0,
2015-01-28, 09:08:04,VALID,918.861,VALID,0,VALID,68.7785,VALID,484.882,VALID,24.5935,VALID,253,VALID,0,
2015-01-28, 09:09:04,VALID,918.893,VALID,0,VALID,67.7417,VALID,486.816,VALID,24.4959,VALID,244,VALID,0,
2015-01-28, 09:10:04,VALID,918.891,VALID,0,VALID,68.9157,VALID,482.733,VALID,24.3611,VALID,244,VALID,0,
2015-01-28, 09:11:04,VALID,918.893,VALID,0,VALID,69.2587,VALID,477.576,VALID,24.4587,VALID,244,VALID,0,
2015-01-28, 09:12:04,VALID,918.857,VALID,0,VALID,68.9767,VALID,474.675,VALID,24.5564,VALID,244,VALID,0,
2015-01-28, 09:13:04,VALID,918.846,VALID,0,VALID,65.9578,VALID,488.857,VALID,24.4783,VALID,241,VALID,0,
2015-01-28, 09:14:04,VALID,918.828,VALID,0,VALID,67.2538,VALID,495.519,VALID,24.4392,VALID,241,VALID,0,
2015-01-28, 09:15:04,VALID,918.852,VALID,0,VALID,68.5574,VALID,503.254,VALID,24.693,VALID,241,VALID,0,
2015-01-28, 09:16:04,VALID,918.823,VALID,0,VALID,68.6565,VALID,504.544,VALID,24.9255,VALID,315,VALID,0,
2015-01-28, 09:17:04,VALID,918.835,VALID,0,VALID,65.9654,VALID,509.164,VALID,25.2769,VALID,315,VALID,0,
2015-01-28, 09:18:04,VALID,918.852,VALID,0,VALID,65.6224,VALID,516.255,VALID,25.3746,VALID,315,VALID,0,
2015-01-28, 09:19:04,VALID,918.856,VALID,0,VALID,66.7659,VALID,532.908,VALID,25.3746,VALID,315,VALID,0,
2015-01-28, 09:20:04,VALID,918.836,VALID,0,VALID,65.043,VALID,536.669,VALID,25.2965,VALID,315,VALID,0,
2015-01-28, 09:21:04,VALID,918.848,VALID,0,VALID,65.8434,VALID,156.542,VALID,25.355,VALID,315,VALID,0,
2015-01-28, 09:22:04,VALID,918.826,VALID,0,VALID,65.0201,VALID,441.261,VALID,25.2574,VALID,167,VALID,0,
2015-01-28, 09:23:04,VALID,918.846,VALID,0,VALID,65.1116,VALID,517.329,VALID,25.1012,VALID,171,VALID,0,
2015-01-28, 09:24:04,VALID,918.852,VALID,0,VALID,65.3479,VALID,510.131,VALID,25.0426,VALID,179,VALID,0,
2015-01-28, 09:25:04,VALID,918.865,VALID,0,VALID,65.4547,VALID,509.808,VALID,25.1012,VALID,181,VALID,0,
2015-01-28, 09:26:04,VALID,918.864,VALID,0,VALID,65.2107,VALID,531.082,VALID,25.0036,VALID,147,VALID,0,
2015-01-28, 09:27:04,VALID,918.894,VALID,0,VALID,65.043,VALID,526.677,VALID,24.9645,VALID,147,VALID,0,
2015-01-28, 09:28:04,VALID,918.921,VALID,0,VALID,64.7152,VALID,538.173,VALID,25.1383,VALID,147,VALID,0,
2015-01-28, 09:29:04,VALID,918.873,VALID,0,VALID,64.9591,VALID,539.784,VALID,25.4331,VALID,147,VALID,0,
2015-01-28, 09:30:04,VALID,918.862,VALID,0,VALID,63.9071,VALID,513.891,VALID,25.648,VALID,147,VALID,0,
2015-01-28, 09:31:04,VALID,918.873,VALID,0,VALID,63.869,VALID,221.114,VALID,25.7847,VALID,147,VALID,0,
2015-01-28, 09:32:04,VALID,918.885,VALID,0,VALID,63.7318,VALID,241.098,VALID,25.7261,VALID,209,VALID,0,
2015-01-28, 09:33:04,VALID,918.82,VALID,0,VALID,64.9286,VALID,327.266,VALID,25.3726,VALID,209,VALID,0,
2015-01-28, 09:34:04,VALID,918.845,VALID,0,VALID,66.4228,VALID,545.479,VALID,25.1774,VALID,99,VALID,0,
2015-01-28, 09:35:04,VALID,918.832,VALID,0,VALID,66.3847,VALID,542.148,VALID,25.1969,VALID,99,VALID,0,
2015-01-28, 09:36:04,VALID,918.857,VALID,0,VALID,65.5842,VALID,516.577,VALID,25.1793,VALID,48,VALID,0.278125,
2015-01-28, 09:37:04,VALID,918.828,VALID,0,VALID,66.6668,VALID,211.337,VALID,25.0993,VALID,22,VALID,0.0078125,
2015-01-28, 09:38:04,VALID,918.818,VALID,0,VALID,66.5219,VALID,263.553,VALID,25.1012,VALID,21,VALID,0,
2015-01-28, 09:39:04,VALID,918.793,VALID,0,VALID,66.4152,VALID,200.808,VALID,24.8474,VALID,35,VALID,0,
2015-01-28, 09:40:04,VALID,918.8,VALID,0,VALID,66.3923,VALID,134.194,VALID,24.574,VALID,55,VALID,0,
2015-01-28, 09:41:04,VALID,918.784,VALID,0,VALID,66.8269,VALID,297.075,VALID,24.4374,VALID,55,VALID,0,
2015-01-28, 09:42:04,VALID,918.756,VALID,0,VALID,65.9502,VALID,317.811,VALID,24.4764,VALID,55,VALID,0,
2015-01-28, 09:43:04,VALID,918.788,VALID,0,VALID,66.3237,VALID,599.844,VALID,24.535,VALID,55,VALID,0,
2015-01-28, 09:44:04,VALID,918.79,VALID,0,VALID,66.0721,VALID,627.671,VALID,24.5368,VALID,55,VALID,0,
2015-01-28, 09:45:04,VALID,918.756,VALID,0,VALID,65.7443,VALID,628.101,VALID,24.5155,VALID,55,VALID,0,
2015-01-28, 09:46:04,VALID,918.745,VALID,0,VALID,65.63,VALID,641.853,VALID,24.6345,VALID,55,VALID,0,
2015-01-28, 09:47:04,VALID,918.736,VALID,0,VALID,65.9502,VALID,210.692,VALID,24.654,VALID,55,VALID,0,
2015-01-28, 09:48:04,VALID,918.747,VALID,0,VALID,66.3466,VALID,179.749,VALID,24.574,VALID,55,VALID,0,
2015-01-28, 09:49:04,VALID,918.699,VALID,0,VALID,66.865,VALID,150.525,VALID,24.4764,VALID,55,VALID,0,
2015-01-28, 09:50:04,VALID,918.717,VALID,0,VALID,66.8878,VALID,143.541,VALID,24.3983,VALID,55,VALID,0,
2015-01-28, 09:51:04,VALID,918.701,VALID,0,VALID,67.7341,VALID,143.434,VALID,24.2245,VALID,55,VALID,0,
2015-01-28, 09:52:04,VALID,918.7,VALID,0,VALID,68.2296,VALID,158.046,VALID,24.1445,VALID,55,VALID,0,
2015-01-28, 09:53:04,VALID,918.671,VALID,0,VALID,67.4062,VALID,193.179,VALID,24.086,VALID,55,VALID,0,
2015-01-28, 09:54:04,VALID,918.684,VALID,0,VALID,68.8013,VALID,627.994,VALID,23.9689,VALID,55,VALID,0,
2015-01-28, 09:55:04,VALID,918.701,VALID,0,VALID,68.3592,VALID,158.261,VALID,23.9103,VALID,55,VALID,0,
2015-01-28, 09:56:04,VALID,918.639,VALID,0,VALID,68.8394,VALID,151.385,VALID,23.8145,VALID,55,VALID,0,
2015-01-28, 09:57:04,VALID,918.628,VALID,0,VALID,70.1278,VALID,147.409,VALID,23.6779,VALID,55,VALID,0,
2015-01-28, 09:58:04,VALID,918.658,VALID,0,VALID,70.6614,VALID,151.707,VALID,23.598,VALID,53,VALID,0,
2015-01-28, 09:59:04,VALID,918.651,VALID,0,VALID,71.096,VALID,160.302,VALID,23.5395,VALID,52,VALID,0,
2015-01-28, 10:00:04,VALID,918.651,VALID,0,VALID,71.7287,VALID,158.368,VALID,23.5217,VALID,52,VALID,0,
2015-01-28, 10:01:04,VALID,918.65,VALID,0,VALID,70.9511,VALID,149.128,VALID,23.4614,VALID,52,VALID,0,
2015-01-28, 10:02:04,VALID,918.65,VALID,0,VALID,70.8749,VALID,155.252,VALID,23.4028,VALID,357,VALID,0,
2015-01-28, 10:03:04,VALID,918.657,VALID,0,VALID,69.5103,VALID,162.988,VALID,23.3656,VALID,357,VALID,0,
2015-01-28, 10:04:04,VALID,918.637,VALID,0,VALID,69.0605,VALID,165.997,VALID,23.3053,VALID,357,VALID,0,
2015-01-28, 10:05:04,VALID,918.648,VALID,0,VALID,69.4874,VALID,160.195,VALID,23.2857,VALID,357,VALID,0,
2015-01-28, 10:06:04,VALID,918.666,VALID,0,VALID,70.1888,VALID,154.823,VALID,23.3265,VALID,357,VALID,0,
2015-01-28, 10:07:04,VALID,918.629,VALID,0,VALID,70.4099,VALID,152.137,VALID,23.4046,VALID,357,VALID,0,
2015-01-28, 10:08:04,VALID,918.66,VALID,0,VALID,70.7758,VALID,158.153,VALID,23.4419,VALID,357,VALID,0,
2015-01-28, 10:09:04,VALID,918.64,VALID,0,VALID,71.7211,VALID,165.997,VALID,23.4632,VALID,357,VALID,0,
2015-01-28, 10:10:04,VALID,918.638,VALID,0,VALID,69.6704,VALID,175.237,VALID,23.4419,VALID,357,VALID,0,
2015-01-28, 10:11:04,VALID,918.622,VALID,0,VALID,69.3045,VALID,182.543,VALID,23.4809,VALID,357,VALID,0,
2015-01-28, 10:12:04,VALID,918.622,VALID,0,VALID,69.5408,VALID,180.501,VALID,23.5199,VALID,357,VALID,0,
2015-01-28, 10:13:04,VALID,918.59,VALID,0,VALID,68.5574,VALID,180.071,VALID,23.5199,VALID,357,VALID,0,
2015-01-28, 10:14:04,VALID,918.577,VALID,0,VALID,68.4583,VALID,188.882,VALID,23.5395,VALID,357,VALID,0,
2015-01-28, 10:15:04,VALID,918.591,VALID,0,VALID,68.4735,VALID,202.204,VALID,23.5998,VALID,357,VALID,0,
2015-01-28, 10:16:04,VALID,918.612,VALID,0,VALID,68.039,VALID,214.13,VALID,23.5785,VALID,357,VALID,0,
2015-01-28, 10:17:04,VALID,918.604,VALID,0,VALID,67.7188,VALID,225.626,VALID,23.559,VALID,357,VALID,0,
2015-01-28, 10:18:04,VALID,918.586,VALID,0,VALID,68.2601,VALID,211.014,VALID,23.6175,VALID,357,VALID,0,
2015-01-28, 10:19:04,VALID,918.555,VALID,0,VALID,68.2067,VALID,185.981,VALID,23.6175,VALID,357,VALID,0,
2015-01-28, 10:20:04,VALID,918.566,VALID,0,VALID,68.4125,VALID,178.137,VALID,23.7364,VALID,357,VALID,0,
2015-01-28, 10:21:04,VALID,918.55,VALID,0,VALID,68.4278,VALID,190.815,VALID,23.7542,VALID,357,VALID,0,
2015-01-28, 10:22:04,VALID,918.527,VALID,0,VALID,69.2816,VALID,206.824,VALID,23.7737,VALID,357,VALID,0,
2015-01-28, 10:23:04,VALID,918.528,VALID,0,VALID,71.2942,VALID,231.106,VALID,23.8127,VALID,357,VALID,0,
2015-01-28, 10:24:04,VALID,918.513,VALID,0,VALID,70.2345,VALID,226.808,VALID,23.8536,VALID,357,VALID,0,
2015-01-28, 10:25:04,VALID,918.502,VALID,0,VALID,69.0758,VALID,247.437,VALID,23.9689,VALID,357,VALID,0,
2015-01-28, 10:26:04,VALID,918.517,VALID,0,VALID,68.2601,VALID,261.404,VALID,24.1659,VALID,357,VALID,0,
2015-01-28, 10:27:04,VALID,918.516,VALID,0,VALID,67.5435,VALID,239.057,VALID,24.2617,VALID,357,VALID,0,
2015-01-28, 10:28:04,VALID,918.48,VALID,0,VALID,67.6654,VALID,205.75,VALID,24.4783,VALID,357,VALID,0,
2015-01-28, 10:29:04,VALID,918.466,VALID,0,VALID,66.2094,VALID,172.336,VALID,24.7126,VALID,357,VALID,0,
2015-01-28, 10:30:04,VALID,918.434,VALID,0,VALID,68.3363,VALID,159.335,VALID,24.8102,VALID,357,VALID,0,
2015-01-28, 10:31:04,VALID,918.462,VALID,0,VALID,65.8892,VALID,152.459,VALID,24.8083,VALID,357,VALID,0,
2015-01-28, 10:32:04,VALID,918.411,VALID,0,VALID,65.2946,VALID,164.063,VALID,24.7888,VALID,357,VALID,0,
2015-01-28, 10:33:04,VALID,918.414,VALID,0,VALID,65.9502,VALID,184.691,VALID,24.5564,VALID,357,VALID,0,
2015-01-28, 10:34:04,VALID,918.393,VALID,0,VALID,67.9246,VALID,182.757,VALID,24.4002,VALID,357,VALID,0,
2015-01-28, 10:35:04,VALID,918.399,VALID,0,VALID,69.5637,VALID,163.955,VALID,24.2812,VALID,357,VALID,0,
2015-01-28, 10:36:04,VALID,918.378,VALID,0,VALID,69.6094,VALID,146.442,VALID,24.2421,VALID,357,VALID,0,
2015-01-28, 10:37:04,VALID,918.357,VALID,0,VALID,68.0466,VALID,141.07,VALID,24.1854,VALID,357,VALID,0,
2015-01-28, 10:38:04,VALID,918.346,VALID,0,VALID,68.1076,VALID,163.848,VALID,24.0878,VALID,357,VALID,0,
2015-01-28, 10:39:04,VALID,918.36,VALID,0,VALID,69.2511,VALID,195.435,VALID,24.0274,VALID,357,VALID,0,
2015-01-28, 10:40:04,VALID,918.332,VALID,0,VALID,68.3668,VALID,435.674,VALID,24.0683,VALID,357,VALID,0,
2015-01-28, 10:41:04,VALID,918.31,VALID,0,VALID,67.8636,VALID,195.758,VALID,24.0683,VALID,357,VALID,0,
2015-01-28, 10:42:04,VALID,918.281,VALID,0,VALID,68.5803,VALID,252.809,VALID,24.0665,VALID,357,VALID,0,
2015-01-28, 10:43:04,VALID,918.269,VALID,0,VALID,68.2524,VALID,356.49,VALID,24.1464,VALID,357,VALID,0,
2015-01-28, 10:44:04,VALID,918.273,VALID,0,VALID,67.5435,VALID,547.09,VALID,24.125,VALID,357,VALID,0,
2015-01-28, 10:45:04,VALID,918.268,VALID,0,VALID,67.8027,VALID,823.859,VALID,24.2049,VALID,357,VALID,0,
2015-01-28, 10:46:04,VALID,918.28,VALID,0,VALID,66.8878,VALID,806.561,VALID,24.3398,VALID,357,VALID,0,
2015-01-28, 10:47:04,VALID,918.255,VALID,0,VALID,66.8192,VALID,798.503,VALID,24.4783,VALID,357,VALID,0,
2015-01-28, 10:48:04,VALID,918.248,VALID,0,VALID,66.5905,VALID,777.014,VALID,24.7126,VALID,357,VALID,0,
2015-01-28, 10:49:04,VALID,918.24,VALID,0,VALID,66.3313,VALID,769.923,VALID,24.9645,INVALID,360,VALID,0,
2015-01-28, 10:50:04,VALID,918.224,VALID,0,VALID,64.8067,VALID,248.726,VALID,25.4156,VALID,337,VALID,0,
2015-01-28, 10:51:04,VALID,918.228,VALID,0,VALID,63.16,VALID,188.774,VALID,25.4722,VALID,278,VALID,0,
2015-01-28, 10:52:04,VALID,918.234,VALID,0,VALID,63.2134,VALID,195.435,VALID,25.316,VALID,278,VALID,0,
2015-01-28, 10:53:04,VALID,918.21,VALID,0,VALID,64.3416,VALID,200.163,VALID,25.1793,VALID,278,VALID,0,
2015-01-28, 10:54:04,VALID,918.206,VALID,0,VALID,64.738,VALID,209.833,VALID,25.0621,VALID,278,VALID,0,
2015-01-28, 10:55:04,VALID,918.215,VALID,0,VALID,64.3188,VALID,210.155,VALID,24.9274,VALID,278,VALID,0,
2015-01-28, 10:56:04,VALID,918.178,VALID,0,VALID,64.86,VALID,242.602,VALID,24.8883,VALID,278,VALID,0,
2015-01-28, 10:57:04,VALID,918.168,VALID,0,VALID,66.7506,VALID,273.33,VALID,24.945,VALID,278,VALID,0,
2015-01-28, 10:58:04,VALID,918.176,VALID,0,VALID,65.9197,VALID,830.842,VALID,25.0621,VALID,278,VALID,0,
2015-01-28, 10:59:04,VALID,918.189,VALID,0,VALID,64.1434,VALID,622.944,VALID,25.1793,VALID,278,VALID,0,
2015-01-28, 11:00:04,VALID,918.138,VALID,0,VALID,62.8474,VALID,459.096,VALID,25.2788,VALID,278,VALID,0,
2015-01-28, 11:01:04,VALID,918.143,VALID,0,VALID,63.1448,VALID,333.82,VALID,25.2183,VALID,278,VALID,0,
2015-01-28, 11:02:04,VALID,918.138,VALID,0,VALID,64.0596,VALID,647.763,VALID,25.1988,VALID,278,VALID,0,
2015-01-28, 11:03:04,VALID,918.101,VALID,0,VALID,63.8537,VALID,820.206,VALID,25.4722,VALID,278,VALID,0,
2015-01-28, 11:04:04,VALID,918.105,VALID,0,VALID,64.6771,VALID,823.214,VALID,25.8042,VALID,287,VALID,0,
2015-01-28, 11:05:04,VALID,918.091,VALID,0,VALID,64.2502,VALID,845.884,VALID,26.0581,VALID,322,VALID,0,
2015-01-28, 11:06:04,VALID,918.097,VALID,0,VALID,62.7941,VALID,178.137,VALID,26.1558,VALID,279,VALID,0,
2015-01-28, 11:07:04,VALID,918.116,VALID,0,VALID,61.2465,VALID,168.79,VALID,26.0366,VALID,305,VALID,0,
2015-01-28, 11:08:04,VALID,918.131,VALID,0,VALID,62.7788,VALID,166.749,VALID,25.7437,VALID,284,VALID,0,
2015-01-28, 11:09:04,VALID,918.134,VALID,0,VALID,64.9744,VALID,170.509,VALID,25.6675,VALID,284,VALID,0,
2015-01-28, 11:10:04,VALID,918.111,VALID,0,VALID,65.1497,VALID,178.46,VALID,25.6675,VALID,278,VALID,0,
2015-01-28, 11:11:04,VALID,918.093,VALID,0,VALID,63.7699,VALID,320.067,VALID,25.6265,VALID,279,VALID,0,